Weather History for Corinth, MS

Change the Weather History Date:

Sunday, June 30, 2013

  Actual Average Record
Temperature  
Mean Temperature 71 °F -  
Max Temperature 82 °F 91 °F 103 °F (1931)
Min Temperature 60 °F 67 °F 58 °F (1940)
Cooling Degree Days 6    
Growing Degree Days 21 (Base 50)    
Moisture  
Dew Point 61 °F    
Average Humidity 72    
Maximum Humidity 94    
Minimum Humidity 45    
Precipitation  
Precipitation 0.00 in - - ()
Sea Level Pressure  
Sea Level Pressure 29.76 in    
Wind  
Wind Speed 3 mph (NW)    
Max Wind Speed 13 mph    
Max Gust Speed 18 mph    
Visibility 10 miles    
Events      
Averages and records for this station are not official NWS values.
T = Trace of Precipitation, MM = Missing Value Source: NWS Daily Summary

Daily Weather History Graph

Daily Weather History Graph

Search for Another Location

Airport:

Trip Planner

Search our weather history database for the weather conditions in past years. The results will help you decide how hot, cold, wet, or windy it might be!

Date:

Astronomy

Jun. 30, 2013 Rise Set
Actual Time 5:44 AM CDT 8:12 PM CDT
Civil Twilight 5:14 AM CDT 8:41 PM CDT
Nautical Twilight 4:37 AM CDT 9:18 PM CDT
Astronomical Twilight 3:57 AM CDT 9:58 PM CDT
Moon 12:31 AM CDT (6/30) 1:36 PM CDT (6/30)
Length of Visible Light 15h 27m
Length of Day
14h 28m
Last Quarter, 45% of the Moon is Illuminated
Jun 30
Last Quarter
Jul 8
New
Jul 15
First Quarter
Jul 22
Full
Jul 29
Last Quarter

Hourly Weather History & Observations

Time (CDT) Temp. Heat Index Dew Point Humidity Pressure Visibility Wind Dir Wind Speed Gust Speed Precip Events Conditions
12:10 AM 66.2 °F - 64.4 °F 94% 29.73 in 10.0 mi Calm Calm - N/A   Clear
12:30 AM 68.0 °F - 62.6 °F 83% 29.73 in 10.0 mi Calm Calm - N/A   Clear
12:50 AM 66.2 °F - 62.6 °F 88% 29.73 in 10.0 mi Calm Calm - N/A   Clear
1:10 AM 66.2 °F - 62.6 °F 88% 29.73 in 10.0 mi Calm Calm - N/A   Clear
1:30 AM 64.4 °F - 62.6 °F 94% 29.72 in 10.0 mi Calm Calm - N/A   Clear
1:50 AM 64.4 °F - 62.6 °F 94% 29.72 in 10.0 mi Calm Calm - N/A   Clear
2:10 AM 64.4 °F - 60.8 °F 88% 29.72 in 10.0 mi WNW 3.5 mph - N/A   Clear
2:30 AM 64.4 °F - 60.8 °F 88% 29.72 in 10.0 mi WNW 3.5 mph - N/A   Clear
2:50 AM 64.4 °F - 60.8 °F 88% 29.72 in 10.0 mi SSE 3.5 mph - N/A   Clear
3:10 AM 62.6 °F - 60.8 °F 94% 29.72 in 10.0 mi Calm Calm - N/A   Clear
3:30 AM 62.6 °F - 60.8 °F 94% 29.72 in 10.0 mi WNW 4.6 mph - N/A   Clear
3:50 AM 62.6 °F - 59.0 °F 88% 29.72 in 10.0 mi Calm Calm - N/A   Clear
4:10 AM 62.6 °F - 59.0 °F 88% 29.72 in 10.0 mi Calm Calm - N/A   Clear
4:30 AM 62.6 °F - 59.0 °F 88% 29.72 in 10.0 mi South 3.5 mph - N/A   Clear
4:50 AM 62.6 °F - 59.0 °F 88% 29.72 in 10.0 mi Calm Calm - N/A   Clear
5:10 AM 62.6 °F - 59.0 °F 88% 29.72 in 10.0 mi WNW 4.6 mph - N/A   Clear
5:30 AM 60.8 °F - 59.0 °F 94% 29.73 in 10.0 mi Calm Calm - N/A   Clear
5:50 AM 62.6 °F - 59.0 °F 88% 29.73 in 10.0 mi Calm Calm - N/A   Clear
6:10 AM 62.6 °F - 59.0 °F 88% 29.75 in 10.0 mi Calm Calm - N/A   Clear
6:30 AM 62.6 °F - 59.0 °F 88% 29.75 in 10.0 mi Calm Calm - N/A   Clear
6:50 AM 64.4 °F - 60.8 °F 88% 29.76 in 10.0 mi NNW 3.5 mph - N/A   Clear
7:10 AM 66.2 °F - 62.6 °F 88% 29.76 in 10.0 mi NNW 4.6 mph - N/A   Clear
7:30 AM 68.0 °F - 60.8 °F 78% 29.76 in 10.0 mi NW 4.6 mph - N/A   Clear
7:50 AM 68.0 °F - 59.0 °F 73% 29.76 in 10.0 mi NW 6.9 mph - N/A   Clear
8:10 AM 69.8 °F - 60.8 °F 73% 29.77 in 10.0 mi NW 4.6 mph - N/A   Clear
8:30 AM 71.6 °F - 62.6 °F 73% 29.77 in 10.0 mi NNE 4.6 mph - N/A   Clear
8:50 AM 73.4 °F - 62.6 °F 69% 29.78 in 10.0 mi Calm Calm - N/A   Clear
9:10 AM 73.4 °F - 60.8 °F 65% 29.77 in 10.0 mi NNW 4.6 mph - N/A   Partly Cloudy
9:30 AM 75.2 °F - 62.6 °F 65% 29.77 in 10.0 mi WNW 4.6 mph - N/A   Scattered Clouds
9:50 AM 75.2 °F - 60.8 °F 61% 29.77 in 10.0 mi WNW 5.8 mph - N/A   Clear
10:10 AM 77.0 °F - 62.6 °F 61% 29.77 in 10.0 mi Calm Calm - N/A   Clear
10:30 AM 77.0 °F - 60.8 °F 57% 29.77 in 10.0 mi WNW 4.6 mph - N/A   Clear
10:50 AM 78.8 °F - 60.8 °F 54% 29.77 in 10.0 mi NW 8.1 mph - N/A   Partly Cloudy
11:10 AM 78.8 °F - 62.6 °F 57% 29.78 in 10.0 mi NW 10.4 mph - N/A   Scattered Clouds
11:30 AM 78.8 °F - 62.6 °F 57% 29.78 in 10.0 mi NW 9.2 mph - N/A   Mostly Cloudy
11:50 AM 78.8 °F - 62.6 °F 57% 29.77 in 10.0 mi NW 10.4 mph 16.1 mph N/A   Scattered Clouds
12:10 PM 80.6 °F 81.1 °F 59.0 °F 48% 29.77 in 10.0 mi West 6.9 mph - N/A   Partly Cloudy
12:30 PM 80.6 °F 81.5 °F 60.8 °F 51% 29.77 in 10.0 mi NW 9.2 mph - N/A   Scattered Clouds
12:50 PM 77.0 °F - 60.8 °F 57% 29.77 in 10.0 mi WNW 11.5 mph - N/A   Mostly Cloudy
1:10 PM 80.6 °F 81.8 °F 62.6 °F 54% 29.77 in 10.0 mi WNW 9.2 mph - N/A   Scattered Clouds
1:30 PM 80.6 °F 81.8 °F 62.6 °F 54% 29.76 in 10.0 mi WNW 11.5 mph - N/A   Partly Cloudy
1:50 PM 80.6 °F 81.5 °F 60.8 °F 51% 29.76 in 10.0 mi NW 9.2 mph - N/A   Scattered Clouds
2:10 PM 80.6 °F 81.5 °F 60.8 °F 51% 29.76 in 10.0 mi West 8.1 mph - N/A   Partly Cloudy
2:30 PM 80.6 °F 81.5 °F 60.8 °F 51% 29.76 in 10.0 mi WNW 8.1 mph - N/A   Scattered Clouds
2:50 PM 80.6 °F 81.5 °F 60.8 °F 51% 29.76 in 10.0 mi NW 8.1 mph - N/A   Partly Cloudy
3:10 PM 82.4 °F 82.9 °F 60.8 °F 48% 29.76 in 10.0 mi NW 10.4 mph - N/A   Partly Cloudy
3:30 PM 82.4 °F 82.5 °F 59.0 °F 45% 29.76 in 10.0 mi NW 9.2 mph - N/A   Clear
3:50 PM 82.4 °F 82.9 °F 60.8 °F 48% 29.76 in 10.0 mi NNW 9.2 mph - N/A   Partly Cloudy
4:10 PM 80.6 °F 81.5 °F 60.8 °F 51% 29.76 in 10.0 mi WNW 12.7 mph - N/A   Clear
4:30 PM 80.6 °F 81.5 °F 60.8 °F 51% 29.76 in 10.0 mi WNW 8.1 mph - N/A   Scattered Clouds
4:50 PM 80.6 °F 81.8 °F 62.6 °F 54% 29.76 in 10.0 mi WNW 11.5 mph 18.4 mph N/A   Scattered Clouds
5:10 PM 80.6 °F 81.5 °F 60.8 °F 51% 29.76 in 10.0 mi NW 11.5 mph - N/A   Partly Cloudy
5:30 PM 80.6 °F 81.1 °F 59.0 °F 48% 29.76 in 10.0 mi NW 10.4 mph - N/A   Clear
5:50 PM 78.8 °F - 62.6 °F 57% 29.76 in 10.0 mi NW 11.5 mph - N/A   Clear
6:10 PM 77.0 °F - 62.6 °F 61% 29.77 in 10.0 mi NNW 10.4 mph - N/A   Clear
6:30 PM 77.0 °F - 62.6 °F 61% 29.77 in 10.0 mi NNW 9.2 mph - N/A   Clear
6:50 PM 77.0 °F - 62.6 °F 61% 29.77 in 10.0 mi NW 5.8 mph - N/A   Clear
7:10 PM 75.2 °F - 60.8 °F 61% 29.78 in 10.0 mi NW 9.2 mph - N/A   Clear
7:30 PM 75.2 °F - 60.8 °F 61% 29.79 in 10.0 mi NW 6.9 mph - N/A   Clear
7:50 PM 73.4 °F - 62.6 °F 69% 29.79 in 10.0 mi NNW 3.5 mph - N/A   Clear
8:10 PM 71.6 °F - 62.6 °F 73% 29.79 in 10.0 mi NNW 4.6 mph - N/A   Clear
8:30 PM 71.6 °F - 62.6 °F 73% 29.80 in 10.0 mi NW 5.8 mph - N/A   Clear
8:50 PM 71.6 °F - 62.6 °F 73% 29.80 in 10.0 mi NNW 3.5 mph - N/A   Clear
9:10 PM 69.8 °F - 62.6 °F 78% 29.81 in 10.0 mi NNW 3.5 mph - N/A   Clear
9:30 PM 68.0 °F - 62.6 °F 83% 29.81 in 10.0 mi NNW 3.5 mph - N/A   Clear
9:50 PM 68.0 °F - 62.6 °F 83% 29.81 in 10.0 mi Calm Calm - N/A   Clear
10:10 PM 66.2 °F - 62.6 °F 88% 29.82 in 10.0 mi Calm Calm - N/A   Clear
10:30 PM 68.0 °F - 62.6 °F 83% 29.82 in 10.0 mi Calm Calm - N/A   Clear
10:50 PM 66.2 °F - 62.6 °F 88% 29.82 in 10.0 mi Calm Calm - N/A   Clear
11:10 PM 66.2 °F - 62.6 °F 88% 29.82 in 10.0 mi West 3.5 mph - N/A   Clear
11:30 PM 66.2 °F - 62.6 °F 88% 29.82 in 10.0 mi Calm Calm - N/A   Clear
11:50 PM 64.4 °F - 62.6 °F 94% 29.82 in 10.0 mi Calm Calm - N/A   Clear